sat.trackr.live / text

‹ back to catalog

STARLINK-5837

NORAD 56346 · 2023-058AF

PAYLOAD ACTIVE UNKNOWN

§ Identity

Operator
Country
US
Launch date
2023-04-27
Launch site
AFWTR
Launch vehicle
Mass (kg)
RCS (m²)

Purposes: comms

External: N2YO · Heavens-Above · Gunter

§ Orbital elements

Epoch: 2026-09-20T22:00:03.000096Z

Period
94.90 min
Inclination
97.2805°
Eccentricity
0.0002323
Mean motion
15.17463133 rev/d
Perigee alt
511.9 km
Apogee alt
515.1 km
Semi-major
6,891.6 km
B*
3.9226e-3
RAAN
257.8381°
Arg perigee
68.3872°
Mean anomaly
181.6978°
Rev number
568

§ Raw data

STARLINK-58371 56346U 23058AF  26263.91670139  .00079269  00000+0  39226-2 0  99932 56346  97.2805 257.8381 0002323  68.3872 181.6978 15.17463133  5688

JSON: /api/v1/satellites/56346 · /tle

For live sub-satellite position, see the globe view (requires WebGL).

§ Visibility from observer

Set your observer location to see the next 7 days of passes ≥ 10°. The values pass through the URL so the page stays shareable.

No JS? Fill the form by hand. The geolocation button needs JavaScript.